Voltar ao catálogo

STARLINK-33752

AtivoComunicaçõesVLEO
NORAD 63580·PAYLOAD·🇺🇸 United States

Lançado Apr 14, 2025 de Cape Canaveral Space Force Station

Loading…

Próximas Passagens (próximas 24 horas)

TLE

AtualizadoSource: CelesTrak SupGP

Época: Sep 15, 2026, 02:14 UTC

1 63580C 25076M   26258.09354167  .00040558  00000+0  14688-2 0  2588
2 63580  43.0026 332.1593 0001675 264.2648 177.6955 15.27562324    14

Acompanhe STARLINK-33752 em tempo real com AllMySat

Download on the App Store